Weather History for Drummond Island, MI

Change the Weather History Date:

Wednesday, February 6, 2013

  Actual Average (KCIU) Record (KCIU)
Temperature  
Mean Temperature 0 °F -  
Max Temperature 13 °F 24 °F 46 °F (2005)
Min Temperature -11 °F 1 °F -18 °F (1989)
Degree Days  
Heating Degree Days 64    
Moisture  
Dew Point 0 °F    
Average Humidity 80    
Maximum Humidity 90    
Minimum Humidity 66    
Precipitation  
Precipitation 0.00 in - - ()
Sea Level Pressure  
Sea Level Pressure 30.16 in    
Wind  
Wind Speed 3 mph (NE)    
Max Wind Speed 7 mph    
Max Gust Speed -    
Visibility 9 miles    
Events Snow    
Averages and records for this station are not official NWS values.
T = Trace of Precipitation, MM = Missing Value Source: NWS Daily Summary

Daily Weather History Graph

Daily Weather History Graph

Search for Another Location

Airport:

Trip Planner

Search our weather history database for the weather conditions in past years. The results will help you decide how hot, cold, wet, or windy it might be!

Date:

Astronomy

Feb. 06, 2013 Rise Set
Actual Time 7:50 AM EST 5:48 PM EST
Civil Twilight 7:19 AM EST 6:19 PM EST
Nautical Twilight 6:43 AM EST 6:55 PM EST
Astronomical Twilight 6:08 AM EST 7:30 PM EST
Moon 4:39 AM EST (2/6) 1:59 PM EST (2/6)
Length of Visible Light 11h 00m
Length of Day
9h 57m
Waning Crescent, 17% of the Moon is Illuminated
Feb 6
Waning Crescent
Feb 10
New
Feb 17
First Quarter
Feb 25
Full
Mar 4
Last Quarter

Hourly Weather History & Observations

Time (EST) Temp. Windchill Dew Point Humidity Pressure Visibility Wind Dir Wind Speed Gust Speed Precip Events Conditions
12:16 AM 11.1 °F 1.7 °F 4.8 °F 76% 29.92 in 10.0 mi NW 5.8 mph - N/A   Clear
12:35 AM 10.9 °F 1.4 °F 5.4 °F 78% 29.93 in 10.0 mi NW 5.8 mph - N/A   Clear
12:56 AM 9.9 °F 3.4 °F 4.3 °F 78% 29.94 in 10.0 mi NNW 3.5 mph - N/A   Clear
1:15 AM 8.1 °F 1.4 °F 3.2 °F 81% 29.95 in 10.0 mi NNW 3.5 mph - N/A   Clear
1:36 AM 5.2 °F -1.9 °F 1.2 °F 84% 29.97 in 10.0 mi NW 3.5 mph - N/A   Clear
2:15 AM 7.0 °F -1.7 °F 0.3 °F 74% 29.99 in 10.0 mi NW 4.6 mph - N/A   Clear
2:36 AM 5.7 °F -1.3 °F -0.8 °F 75% 30.01 in 10.0 mi NNW 3.5 mph - N/A   Clear
3:15 AM 2.1 °F -5.4 °F -2.0 °F 83% 30.03 in 10.0 mi North 3.5 mph - N/A   Clear
3:36 AM 0.1 °F - -3.8 °F 83% 30.04 in 10.0 mi Calm Calm - N/A   Clear
3:56 AM -0.4 °F -8.3 °F -4.0 °F 85% 30.04 in 10.0 mi North 3.5 mph - N/A   Clear
4:16 AM -1.8 °F - -5.3 °F 85% 30.05 in 10.0 mi Calm Calm - N/A   Clear
4:36 AM -2.7 °F -11.0 °F -6.2 °F 85% 30.05 in 10.0 mi North 3.5 mph - N/A   Clear
4:56 AM -3.8 °F - -7.1 °F 86% 30.06 in 10.0 mi Calm Calm - N/A   Clear
5:16 AM -2.7 °F - -5.4 °F 88% 30.07 in 10.0 mi Calm Calm - N/A   Clear
5:35 AM -5.6 °F - -8.1 °F 89% 30.08 in 10.0 mi Calm Calm - N/A   Clear
5:56 AM -5.8 °F - -8.3 °F 89% 30.09 in 10.0 mi Calm Calm - N/A   Clear
6:16 AM -6.2 °F - -8.9 °F 88% 30.10 in 10.0 mi Calm Calm - N/A   Clear
6:36 AM -7.6 °F - -10.5 °F 87% 30.11 in 10.0 mi Calm Calm - N/A   Clear
6:56 AM -8.9 °F - -11.7 °F 87% 30.12 in 10.0 mi Calm Calm - N/A   Clear
7:15 AM -9.4 °F - -12.6 °F 86% 30.13 in 7.0 mi Calm Calm - N/A   Clear
7:36 AM -7.6 °F - -10.8 °F 86% 30.15 in 10.0 mi Calm Calm - N/A   Mostly Cloudy
7:56 AM -11.4 °F - -15.2 °F 83% 30.17 in 10.0 mi Calm Calm - N/A   Overcast
8:15 AM -6.7 °F - -10.1 °F 85% 30.17 in 10.0 mi Calm Calm - N/A   Overcast
8:36 AM -5.4 °F - -8.7 °F 86% 30.18 in 10.0 mi Calm Calm - N/A   Overcast
8:55 AM -3.3 °F - -6.7 °F 85% 30.18 in 10.0 mi Calm Calm - N/A   Overcast
9:16 AM -0.4 °F - -4.2 °F 84% 30.19 in 10.0 mi Calm Calm - N/A   Overcast
9:35 AM 1.4 °F - -3.5 °F 80% 30.19 in 10.0 mi Calm Calm - N/A   Overcast
10:16 AM 4.3 °F - -4.0 °F 69% 30.20 in 10.0 mi Calm Calm - N/A   Overcast
10:36 AM 5.4 °F -1.7 °F -3.3 °F 68% 30.20 in 10.0 mi ESE 3.5 mph - N/A   Overcast
10:55 AM 5.9 °F - -3.1 °F 67% 30.21 in 10.0 mi Calm Calm - N/A   Overcast
11:16 AM 7.0 °F 0.1 °F -2.4 °F 66% 30.20 in 10.0 mi East 3.5 mph - N/A   Overcast
11:36 AM 8.1 °F -0.5 °F -0.8 °F 67% 30.21 in 10.0 mi East 4.6 mph - N/A   Overcast
11:55 AM 9.0 °F - 0.1 °F 67% 30.21 in 10.0 mi Calm Calm - N/A   Overcast
12:16 PM 9.7 °F 3.2 °F 0.7 °F 67% 30.22 in 10.0 mi ESE 3.5 mph - N/A   Overcast
12:36 PM 10.4 °F - 1.2 °F 66% 30.22 in 10.0 mi Calm Calm - N/A   Overcast
12:55 PM 11.7 °F - 3.0 °F 68% 30.22 in 10.0 mi Calm Calm - N/A   Overcast
1:16 PM 12.2 °F - 3.4 °F 68% 30.22 in 10.0 mi Calm Calm - N/A   Overcast
1:35 PM 12.6 °F - 3.7 °F 68% 30.22 in 10.0 mi Calm Calm - N/A   Overcast
1:56 PM 12.6 °F 6.5 °F 4.5 °F 70% 30.21 in 10.0 mi ESE 3.5 mph - N/A   Overcast
2:15 PM 12.7 °F 3.6 °F 4.6 °F 70% 30.21 in 10.0 mi ENE 5.8 mph - N/A   Overcast
2:36 PM 12.9 °F 5.2 °F 5.5 °F 72% 30.21 in 7.0 mi SE 4.6 mph - N/A Snow Light Snow
2:56 PM 12.4 °F 3.1 °F 5.7 °F 75% 30.21 in 5.0 mi East 5.8 mph - N/A Snow Light Snow
3:16 PM 12.2 °F 4.3 °F 5.5 °F 75% 30.21 in 10.0 mi ENE 4.6 mph - N/A   Overcast
3:36 PM 11.3 °F 3.3 °F 5.0 °F 76% 30.22 in 10.0 mi NE 4.6 mph - N/A   Overcast
3:56 PM 10.4 °F - 4.6 °F 78% 30.22 in 10.0 mi Calm Calm - N/A   Overcast
4:16 PM 10.0 °F 1.8 °F 4.1 °F 77% 30.22 in 10.0 mi East 4.6 mph - N/A   Overcast
4:35 PM 9.7 °F - 4.5 °F 79% 30.22 in 10.0 mi Calm Calm - N/A   Overcast
4:56 PM 9.1 °F 2.6 °F 3.9 °F 79% 30.22 in 10.0 mi NE 3.5 mph - N/A   Overcast
5:16 PM 8.8 °F - 3.7 °F 80% 30.22 in 10.0 mi Calm Calm - N/A   Overcast
5:35 PM 8.4 °F 1.8 °F 3.4 °F 80% 30.23 in 10.0 mi East 3.5 mph - N/A   Overcast
5:56 PM 7.7 °F - 3.0 °F 81% 30.23 in 10.0 mi Calm Calm - N/A   Overcast
6:16 PM 8.1 °F - 3.2 °F 81% 30.23 in 10.0 mi Calm Calm - N/A   Overcast
6:35 PM 8.1 °F -0.5 °F 3.2 °F 81% 30.23 in 10.0 mi East 4.6 mph - N/A Snow Light Snow
6:56 PM 8.2 °F - 3.6 °F 81% 30.23 in 10.0 mi Calm Calm - N/A   Overcast
7:16 PM 8.4 °F - 3.9 °F 82% 30.24 in 10.0 mi Calm Calm - N/A   Overcast
7:36 PM 8.6 °F 2.0 °F 4.1 °F 82% 30.24 in 10.0 mi ENE 3.5 mph - N/A   Overcast
7:56 PM 8.6 °F - 4.5 °F 83% 30.23 in 10.0 mi Calm Calm - N/A Snow Light Snow
8:15 PM 8.6 °F 0.1 °F 4.6 °F 84% 30.24 in 7.0 mi ENE 4.6 mph - N/A   Overcast
8:36 PM 8.6 °F 2.0 °F 5.0 °F 85% 30.24 in 5.0 mi ENE 3.5 mph - N/A Snow Light Snow
8:56 PM 8.6 °F 2.0 °F 5.0 °F 85% 30.24 in 10.0 mi ENE 3.5 mph - N/A Snow Light Snow
9:15 PM 9.0 °F 0.6 °F 5.9 °F 87% 30.24 in 4.0 mi ENE 4.6 mph - N/A Snow Light Snow
9:36 PM 9.3 °F 2.8 °F 6.1 °F 87% 30.24 in 4.0 mi East 3.5 mph - N/A Snow Light Snow
9:56 PM 9.5 °F 1.2 °F 6.6 °F 88% 30.24 in 5.0 mi ENE 4.6 mph - N/A Snow Light Snow
10:15 PM 9.9 °F 1.6 °F 7.2 °F 89% 30.24 in 1.8 mi ENE 4.6 mph - N/A Snow Light Snow
10:36 PM 10.2 °F 0.6 °F 7.7 °F 90% 30.24 in 2.0 mi ENE 5.8 mph - N/A Snow Light Snow
10:56 PM 10.4 °F 0.8 °F 7.7 °F 89% 30.24 in 2.0 mi East 5.8 mph - N/A Snow Light Snow
11:16 PM 10.4 °F -0.4 °F 7.7 °F 89% 30.23 in 2.0 mi ENE 6.9 mph - N/A Snow Light Snow
11:36 PM 10.4 °F 0.8 °F 7.7 °F 89% 30.23 in 2.5 mi East 5.8 mph - N/A Snow Light Snow
11:55 PM 10.4 °F 0.8 °F 7.7 °F 89% 30.23 in 1.8 mi ENE 5.8 mph - N/A Snow Light Snow